TimeMST,TemperatureF,Dew PointF,Humidity,Sea Level PressureIn,VisibilityMPH,Wind Direction,Wind SpeedMPH,Gust SpeedMPH,PrecipitationIn,Events,Conditions,WindDirDegrees,DateUTC
12:15 AM,8.6,3.2,79,30.08,10.0,West,13.8,-,N/A,,Scattered Clouds,280,2013-01-15 07:15:00
12:41 AM,12.2,6.8,79,30.08,10.0,West,9.2,-,N/A,,Mostly Cloudy,280,2013-01-15 07:41:00
12:53 AM,12.0,7.0,80,30.21,10.0,West,6.9,-,N/A,,Overcast,270,2013-01-15 07:53:00
1:53 AM,10.9,3.9,73,30.21,10.0,West,11.5,-,N/A,,Mostly Cloudy,280,2013-01-15 08:53:00
2:01 AM,10.4,3.2,73,30.09,10.0,West,10.4,-,N/A,,Scattered Clouds,270,2013-01-15 09:01:00
2:53 AM,7.0,1.9,80,30.23,10.0,West,11.5,-,N/A,,Clear,270,2013-01-15 09:53:00
3:53 AM,6.1,1.0,80,30.24,10.0,West,12.7,-,N/A,,Clear,270,2013-01-15 10:53:00
5:53 AM,3.0,-2.0,80,30.30,10.0,West,12.7,-,N/A,,Clear,280,2013-01-15 12:53:00
6:53 AM,1.0,-4.0,79,30.32,10.0,West,12.7,-,N/A,,Clear,280,2013-01-15 13:53:00
7:53 AM,1.9,-2.9,80,30.33,10.0,West,10.4,-,N/A,,Clear,270,2013-01-15 14:53:00
8:53 AM,7.0,-0.9,70,30.35,10.0,West,15.0,-,N/A,,Clear,280,2013-01-15 15:53:00
9:53 AM,15.1,3.0,59,30.32,10.0,West,10.4,-,N/A,,Clear,280,2013-01-15 16:53:00
10:53 AM,21.0,6.1,53,30.30,10.0,WSW,10.4,-,N/A,,Clear,250,2013-01-15 17:53:00
11:53 AM,26.1,3.9,39,30.24,10.0,WNW,8.1,-,N/A,,Clear,290,2013-01-15 18:53:00
12:53 PM,30.0,-2.0,25,30.19,10.0,WNW,6.9,-,N/A,,Clear,290,2013-01-15 19:53:00
1:53 PM,32.0,-2.9,22,30.18,10.0,NW,10.4,-,N/A,,Mostly Cloudy,320,2013-01-15 20:53:00
2:53 PM,35.1,-0.9,22,30.20,10.0,NNW,12.7,-,N/A,,Overcast,340,2013-01-15 21:53:00
3:53 PM,33.1,1.9,27,30.22,10.0,NNW,11.5,-,N/A,,Overcast,340,2013-01-15 22:53:00
4:53 PM,30.9,1.9,29,30.24,10.0,NW,4.6,-,N/A,,Overcast,320,2013-01-15 23:53:00
5:53 PM,28.9,-0.0,29,30.25,10.0,WSW,4.6,-,N/A,,Overcast,240,2013-01-16 00:53:00
6:53 PM,28.0,-2.0,27,30.27,10.0,West,6.9,-,N/A,,Overcast,260,2013-01-16 01:53:00
7:53 PM,28.0,-4.0,25,30.26,10.0,WSW,8.1,-,N/A,,Overcast,240,2013-01-16 02:53:00
8:53 PM,28.9,-7.1,21,30.23,10.0,WSW,13.8,-,N/A,,Overcast,240,2013-01-16 03:53:00
9:53 PM,28.0,-5.1,24,30.22,10.0,WSW,13.8,-,N/A,,Overcast,250,2013-01-16 04:53:00
10:53 PM,28.0,-2.9,26,30.20,10.0,West,8.1,-,N/A,,Overcast,260,2013-01-16 05:53:00
11:53 PM,28.9,-0.0,29,30.18,10.0,West,9.2,-,N/A,,Overcast,270,2013-01-16 06:53:00